| time (UTC) | temp F | wind direction | speed MPH | gust MPH | rain 1hr in | rain 24hr in | rain mn in | humidity % | barometer mb |
| 20260905052703 | 87 | 169 | 3.0 | 3.0 | 0.00 | 0.00 | 0.00 | 66 | 1014.6 |
| 20260905052157 | 87 | 197 | 2.0 | 5.0 | 0.00 | 0.00 | 0.00 | 65 | 1014.4 |
| 20260905051652 | 87 | 186 | 1.0 | 2.0 | 0.00 | 0.00 | 0.00 | 65 | 1014.3 |
| 20260905051149 | 87 | 200 | 3.0 | 3.0 | 0.00 | 0.00 | 0.00 | 65 | 1014.3 |
| 20260905050645 | 87 | 191 | 1.0 | 2.0 | 0.00 | 0.00 | 0.00 | 64 | 1014.5 |
| 20260905050141 | 87 | 195 | 1.0 | 2.0 | 0.00 | 0.00 | 0.00 | 64 | 1014.4 |
| 20260905045641 | 87 | 152 | 6.0 | 8.0 | 0.00 | 0.00 | 0.00 | 64 | 1014.3 |
| 20260905045137 | 87 | 200 | 3.0 | 3.0 | 0.00 | 0.00 | 0.00 | 64 | 1014.6 |
| 20260905044637 | 87 | 173 | 3.0 | 3.0 | 0.00 | 0.00 | 0.00 | 63 | 1014.5 |
| 20260905044131 | 88 | 208 | 1.0 | 2.0 | 0.00 | 0.00 | 0.00 | 63 | 1014.4 |
| 20260905043630 | 88 | 185 | 2.0 | 2.0 | 0.00 | 0.00 | 0.00 | 63 | 1014.5 |
| 20260905043126 | 88 | 253 | 1.0 | 2.0 | 0.00 | 0.00 | 0.00 | 63 | 1014.4 |
| 20260905042624 | 88 | 179 | 3.0 | 6.0 | 0.00 | 0.00 | 0.00 | 63 | 1014.5 |
| 20260905042120 | 88 | 189 | 3.0 | 3.0 | 0.00 | 0.00 | 0.00 | 62 | 1014.5 |
| 20260905041615 | 88 | 164 | 6.0 | 8.0 | 0.00 | 0.00 | 0.00 | 62 | 1014.5 |
| 20260905041110 | 88 | 191 | 2.0 | 2.0 | 0.00 | 0.00 | 0.00 | 62 | 1014.4 |
| 20260905040611 | 88 | 178 | 3.0 | 3.0 | 0.00 | 0.00 | 0.00 | 62 | 1014.4 |
| 20260905040109 | 88 | 176 | 4.0 | 6.0 | 0.00 | 0.00 | 0.00 | 61 | 1014.5 |
| 20260905035605 | 88 | 214 | 1.0 | 1.0 | 0.00 | 0.00 | 0.00 | 61 | 1014.6 |
| 20260905035101 | 88 | 197 | 1.0 | 1.0 | 0.00 | 0.00 | 0.00 | 60 | 1014.5 |
| 20260905034557 | 88 | 158 | 3.0 | 3.0 | 0.00 | 0.00 | 0.00 | 60 | 1014.3 |
| 20260905034057 | 88 | 186 | 2.0 | 2.0 | 0.00 | 0.00 | 0.00 | 60 | 1014.7 |
| 20260905033556 | 88 | 198 | 1.0 | 1.0 | 0.00 | 0.00 | 0.00 | 59 | 1014.4 |
| 20260905033052 | 88 | 194 | 0.0 | 1.0 | 0.00 | 0.00 | 0.00 | 59 | 1014.6 |
| 20260905032552 | 88 | 182 | 2.0 | 2.0 | 0.00 | 0.00 | 0.00 | 59 | 1014.3 |
| 20260905032047 | 89 | 198 | 2.0 | 2.0 | 0.00 | 0.00 | 0.00 | 59 | 1014.5 |
| 20260905031543 | 89 | 201 | 0.0 | 0.0 | 0.00 | 0.00 | 0.00 | 59 | 1014.6 |
| 20260905031043 | 89 | 202 | 0.0 | 0.0 | 0.00 | 0.00 | 0.00 | 58 | 1014.5 |
| 20260905030538 | 89 | 195 | 1.0 | 1.0 | 0.00 | 0.00 | 0.00 | 58 | 1014.1 |
| 20260905030038 | 89 | 197 | 0.0 | 1.0 | 0.00 | 0.00 | 0.00 | 58 | 1014.3 |
| 20260905025533 | 89 | 180 | 1.0 | 1.0 | 0.00 | 0.00 | 0.00 | 58 | 1014.3 |
| 20260905025029 | 89 | 201 | 0.0 | 0.0 | 0.00 | 0.00 | 0.00 | 58 | 1014.1 |
| 20260905024524 | 89 | 207 | 0.0 | 0.0 | 0.00 | 0.00 | 0.00 | 58 | 1014.0 |
| 20260905024019 | 89 | 205 | 0.0 | 0.0 | 0.00 | 0.00 | 0.00 | 58 | 1014.4 |
| 20260905023514 | 89 | 200 | 0.0 | 0.0 | 0.00 | 0.00 | 0.00 | 58 | 1014.0 |
| 20260905023009 | 90 | 196 | 0.0 | 0.0 | 0.00 | 0.00 | 0.00 | 57 | 1013.9 |
| 20260905022503 | 90 | 174 | 1.0 | 1.0 | 0.00 | 0.00 | 0.00 | 57 | 1014.0 |
| 20260905021959 | 90 | 189 | 0.0 | 1.0 | 0.00 | 0.00 | 0.00 | 56 | 1013.8 |
| 20260905021458 | 90 | 207 | 0.0 | 1.0 | 0.00 | 0.00 | 0.00 | 56 | 1013.7 |
| 20260905020954 | 90 | 196 | 1.0 | 1.0 | 0.00 | 0.00 | 0.00 | 56 | 1013.5 |
| 20260905020454 | 91 | 201 | 0.0 | 0.0 | 0.00 | 0.00 | 0.00 | 55 | 1013.4 |
| 20260905015953 | 91 | 162 | 0.0 | 1.0 | 0.00 | 0.00 | 0.00 | 55 | 1013.4 |
| 20260905015452 | 91 | 200 | 1.0 | 2.0 | 0.00 | 0.00 | 0.00 | 55 | 1013.2 |
| 20260905014951 | 91 | 203 | 1.0 | 1.0 | 0.00 | 0.00 | 0.00 | 54 | 1013.1 |
| 20260905014446 | 91 | 200 | 0.0 | 1.0 | 0.00 | 0.00 | 0.00 | 54 | 1013.1 |
| 20260905013942 | 91 | 182 | 0.0 | 1.0 | 0.00 | 0.00 | 0.00 | 54 | 1013.1 |
| 20260905013439 | 91 | 196 | 0.0 | 0.0 | 0.00 | 0.00 | 0.00 | 54 | 1013.1 |
| 20260905012933 | 91 | 211 | 2.0 | 3.0 | 0.00 | 0.00 | 0.00 | 54 | 1013.2 |
| 20260905012428 | 92 | 185 | 2.0 | 3.0 | 0.00 | 0.00 | 0.00 | 54 | 1012.9 |
| 20260905011925 | 92 | 197 | 1.0 | 1.0 | 0.00 | 0.00 | 0.00 | 54 | 1013.1 |
| 20260905011420 | 92 | 195 | 1.0 | 1.0 | 0.00 | 0.00 | 0.00 | 53 | 1012.9 |
| 20260905010916 | 92 | 159 | 1.0 | 2.0 | 0.00 | 0.00 | 0.00 | 52 | 1012.9 |
| 20260905010411 | 93 | 204 | 2.0 | 3.0 | 0.00 | 0.00 | 0.00 | 52 | 1012.9 |
| 20260905005907 | 93 | 144 | 2.0 | 3.0 | 0.00 | 0.00 | 0.00 | 51 | 1012.9 |
| 20260905005403 | 93 | 113 | 3.0 | 5.0 | 0.00 | 0.00 | 0.00 | 50 | 1012.6 |
| 20260905004857 | 93 | 170 | 1.0 | 1.0 | 0.00 | 0.00 | 0.00 | 50 | 1012.8 |
| 20260905004352 | 93 | 174 | 1.0 | 2.0 | 0.00 | 0.00 | 0.00 | 50 | 1012.7 |
| 20260905003847 | 94 | 204 | 3.0 | 3.0 | 0.00 | 0.00 | 0.00 | 50 | 1012.8 |
| 20260905003343 | 94 | 189 | 1.0 | 1.0 | 0.00 | 0.00 | 0.00 | 50 | 1012.6 |
| 20260905002838 | 94 | 114 | 2.0 | 2.0 | 0.00 | 0.00 | 0.00 | 49 | 1012.5 |
| 20260905002338 | 94 | 116 | 2.0 | 2.0 | 0.00 | 0.00 | 0.00 | 49 | 1012.6 |
| 20260905001833 | 94 | 141 | 3.0 | 3.0 | 0.00 | 0.00 | 0.00 | 49 | 1012.4 |
| 20260905001333 | 95 | 146 | 3.0 | 3.0 | 0.00 | 0.00 | 0.00 | 48 | 1012.5 |
| 20260905000828 | 95 | 146 | 2.0 | 3.0 | 0.00 | 0.00 | 0.00 | 48 | 1012.3 |
| 20260905000325 | 95 | 105 | 1.0 | 2.0 | 0.00 | 0.00 | 0.00 | 48 | 1012.5 |
| 20260904235819 | 95 | 188 | 1.0 | 1.0 | 0.00 | 0.00 | 0.00 | 48 | 1012.4 |
| 20260904235314 | 96 | 164 | 1.0 | 1.0 | 0.00 | 0.00 | 0.00 | 48 | 1012.6 |
| 20260904234808 | 96 | 181 | 2.0 | 3.0 | 0.00 | 0.00 | 0.00 | 48 | 1012.6 |
| 20260904234303 | 96 | 180 | 1.0 | 2.0 | 0.00 | 0.00 | 0.00 | 47 | 1012.3 |
| 20260904233759 | 96 | 94 | 3.0 | 5.0 | 0.00 | 0.00 | 0.00 | 47 | 1012.4 |
| 20260904233256 | 96 | 100 | 1.0 | 2.0 | 0.00 | 0.00 | 0.00 | 47 | 1012.4 |
| 20260904232752 | 96 | 205 | 1.0 | 2.0 | 0.00 | 0.00 | 0.00 | 48 | 1012.4 |
| 20260904232248 | 96 | 146 | 1.0 | 1.0 | 0.00 | 0.00 | 0.00 | 48 | 1012.2 |
| 20260904231743 | 96 | 153 | 2.0 | 2.0 | 0.00 | 0.00 | 0.00 | 48 | 1012.4 |
| 20260904231238 | 97 | 182 | 1.0 | 1.0 | 0.00 | 0.00 | 0.00 | 47 | 1012.3 |
| 20260904230739 | 97 | 211 | 1.0 | 2.0 | 0.00 | 0.00 | 0.00 | 47 | 1012.4 |
| 20260904230233 | 97 | 195 | 1.0 | 2.0 | 0.00 | 0.00 | 0.00 | 47 | 1012.3 |
| 20260904225733 | 97 | 118 | 0.0 | 1.0 | 0.00 | 0.00 | 0.00 | 47 | 1012.4 |
| 20260904225226 | 97 | 200 | 2.0 | 2.0 | 0.00 | 0.00 | 0.00 | 47 | 1012.5 |
| 20260904224725 | 97 | 115 | 2.0 | 3.0 | 0.00 | 0.00 | 0.00 | 47 | 1012.5 |
| 20260904224221 | 97 | 136 | 3.0 | 3.0 | 0.00 | 0.00 | 0.00 | 48 | 1012.7 |
| 20260904223720 | 96 | 154 | 3.0 | 3.0 | 0.00 | 0.00 | 0.00 | 49 | 1012.6 |
| 20260904223215 | 96 | 203 | 1.0 | 1.0 | 0.00 | 0.00 | 0.00 | 49 | 1012.5 |
| 20260904222711 | 96 | 109 | 1.0 | 2.0 | 0.00 | 0.00 | 0.00 | 49 | 1012.6 |
| 20260904222207 | 96 | 110 | 3.0 | 5.0 | 0.00 | 0.00 | 0.00 | 49 | 1012.6 |
| 20260904221706 | 98 | 160 | 2.0 | 3.0 | 0.00 | 0.00 | 0.00 | 48 | 1012.6 |
| 20260904221201 | 97 | 161 | 3.0 | 5.0 | 0.00 | 0.00 | 0.00 | 47 | 1012.6 |
| 20260904220655 | 97 | 106 | 1.0 | 3.0 | 0.00 | 0.00 | 0.00 | 49 | 1012.5 |
| 20260904220151 | 98 | 158 | 1.0 | 2.0 | 0.00 | 0.00 | 0.00 | 48 | 1012.6 |
| 20260904215650 | 99 | 84 | 6.0 | 11.0 | 0.00 | 0.00 | 0.00 | 46 | 1012.8 |
| 20260904215146 | 98 | 164 | 2.0 | 2.0 | 0.00 | 0.00 | 0.00 | 48 | 1012.6 |
| 20260904214641 | 98 | 49 | 1.0 | 1.0 | 0.00 | 0.00 | 0.00 | 48 | 1012.9 |
| 20260904214137 | 98 | 123 | 2.0 | 2.0 | 0.00 | 0.00 | 0.00 | 47 | 1012.7 |
| 20260904213635 | 98 | 150 | 0.0 | 1.0 | 0.00 | 0.00 | 0.00 | 48 | 1012.9 |
| 20260904213132 | 99 | 90 | 3.0 | 5.0 | 0.00 | 0.00 | 0.00 | 47 | 1012.9 |
| 20260904212632 | 99 | 148 | 1.0 | 2.0 | 0.00 | 0.00 | 0.00 | 46 | 1012.8 |
| 20260904212127 | 98 | 187 | 1.0 | 2.0 | 0.00 | 0.00 | 0.00 | 45 | 1012.9 |
| 20260904211626 | 98 | 66 | 3.0 | 6.0 | 0.00 | 0.00 | 0.00 | 45 | 1013.0 |
| 20260904211122 | 100 | 125 | 1.0 | 2.0 | 0.00 | 0.00 | 0.00 | 44 | 1013.0 |
| 20260904210621 | 99 | 152 | 2.0 | 2.0 | 0.00 | 0.00 | 0.00 | 45 | 1013.0 |
| 20260904210117 | 98 | 218 | 2.0 | 2.0 | 0.00 | 0.00 | 0.00 | 45 | 1013.1 |
| 20260904205613 | 98 | 164 | 1.0 | 2.0 | 0.00 | 0.00 | 0.00 | 46 | 1013.1 |
| 20260904205109 | 97 | 214 | 2.0 | 3.0 | 0.00 | 0.00 | 0.00 | 48 | 1013.1 |
| 20260904204604 | 97 | 162 | 4.0 | 6.0 | 0.00 | 0.00 | 0.00 | 47 | 1013.2 |
| 20260904204101 | 98 | 125 | 4.0 | 5.0 | 0.00 | 0.00 | 0.00 | 45 | 1013.3 |
| 20260904203556 | 97 | 193 | 6.0 | 7.0 | 0.00 | 0.00 | 0.00 | 47 | 1013.3 |
| 20260904203053 | 98 | 198 | 2.0 | 2.0 | 0.00 | 0.00 | 0.00 | 47 | 1013.6 |
| 20260904202548 | 100 | 52 | 0.0 | 1.0 | 0.00 | 0.00 | 0.00 | 45 | 1013.4 |
| 20260904202044 | 98 | 92 | 2.0 | 3.0 | 0.00 | 0.00 | 0.00 | 46 | 1013.6 |
| 20260904201539 | 99 | 123 | 3.0 | 3.0 | 0.00 | 0.00 | 0.00 | 46 | 1013.5 |
| 20260904201034 | 98 | 123 | 3.0 | 3.0 | 0.00 | 0.00 | 0.00 | 46 | 1013.9 |
| 20260904200532 | 99 | 169 | 4.0 | 6.0 | 0.00 | 0.00 | 0.00 | 46 | 1013.8 |
| 20260904200028 | 98 | 156 | 2.0 | 3.0 | 0.00 | 0.00 | 0.00 | 47 | 1013.7 |
| 20260904195526 | 99 | 126 | 3.0 | 6.0 | 0.00 | 0.00 | 0.00 | 46 | 1013.9 |
| 20260904195026 | 99 | 201 | 3.0 | 3.0 | 0.00 | 0.00 | 0.00 | 46 | 1013.7 |
| 20260904194521 | 98 | 209 | 2.0 | 3.0 | 0.00 | 0.00 | 0.00 | 48 | 1013.7 |
| 20260904194015 | 98 | 150 | 1.0 | 2.0 | 0.00 | 0.00 | 0.00 | 47 | 1014.3 |
| 20260904193510 | 99 | 125 | 3.0 | 5.0 | 0.00 | 0.00 | 0.00 | 47 | 1014.5 |
| 20260904193007 | 98 | 135 | 1.0 | 1.0 | 0.00 | 0.00 | 0.00 | 47 | 1014.3 |
| 20260904192506 | 97 | 193 | 4.0 | 6.0 | 0.00 | 0.00 | 0.00 | 48 | 1014.4 |
| 20260904192003 | 98 | 186 | 3.0 | 5.0 | 0.00 | 0.00 | 0.00 | 48 | 1014.4 |
| 20260904191459 | 96 | 204 | 3.0 | 6.0 | 0.00 | 0.00 | 0.00 | 49 | 1014.3 |
| 20260904190955 | 99 | 165 | 5.0 | 7.0 | 0.00 | 0.00 | 0.00 | 48 | 1014.6 |
| 20260904190450 | 97 | 103 | 2.0 | 5.0 | 0.00 | 0.00 | 0.00 | 49 | 1014.7 |
| 20260904185946 | 98 | 141 | 3.0 | 3.0 | 0.00 | 0.00 | 0.00 | 49 | 1014.8 |
| 20260904185442 | 98 | 180 | 3.0 | 3.0 | 0.00 | 0.00 | 0.00 | 49 | 1014.7 |
| 20260904184937 | 98 | 207 | 2.0 | 2.0 | 0.00 | 0.00 | 0.00 | 47 | 1014.8 |
| 20260904184437 | 98 | 217 | 3.0 | 5.0 | 0.00 | 0.00 | 0.00 | 48 | 1014.8 |
| 20260904183932 | 97 | 142 | 1.0 | 2.0 | 0.00 | 0.00 | 0.00 | 48 | 1015.0 |
| 20260904183427 | 97 | 96 | 3.0 | 5.0 | 0.00 | 0.00 | 0.00 | 49 | 1015.1 |
| 20260904182923 | 97 | 207 | 1.0 | 1.0 | 0.00 | 0.00 | 0.00 | 48 | 1015.1 |
| 20260904182418 | 96 | 184 | 5.0 | 6.0 | 0.00 | 0.00 | 0.00 | 48 | 1015.1 |
| 20260904181913 | 96 | 175 | 3.0 | 3.0 | 0.00 | 0.00 | 0.00 | 48 | 1015.4 |
| 20260904181408 | 96 | 162 | 5.0 | 6.0 | 0.00 | 0.00 | 0.00 | 49 | 1015.3 |
| 20260904180903 | 95 | 190 | 4.0 | 6.0 | 0.00 | 0.00 | 0.00 | 51 | 1015.5 |
| 20260904180359 | 95 | 205 | 3.0 | 5.0 | 0.00 | 0.00 | 0.00 | 51 | 1015.4 |
| 20260904175858 | 96 | 97 | 2.0 | 2.0 | 0.00 | 0.00 | 0.00 | 51 | 1015.6 |
| 20260904175357 | 96 | 191 | 3.0 | 3.0 | 0.00 | 0.00 | 0.00 | 50 | 1015.6 |
| 20260904174856 | 96 | 199 | 1.0 | 2.0 | 0.00 | 0.00 | 0.00 | 52 | 1015.7 |
| 20260904174353 | 95 | 149 | 1.0 | 2.0 | 0.00 | 0.00 | 0.00 | 51 | 1015.8 |
| 20260904173848 | 95 | 104 | 3.0 | 3.0 | 0.00 | 0.00 | 0.00 | 51 | 1015.9 |
| 20260904173344 | 95 | 103 | 3.0 | 3.0 | 0.00 | 0.00 | 0.00 | 51 | 1015.7 |
| 20260904172839 | 94 | 194 | 0.0 | 1.0 | 0.00 | 0.00 | 0.00 | 55 | 1016.1 |
| 20260904172338 | 94 | 200 | 4.0 | 6.0 | 0.00 | 0.00 | 0.00 | 53 | 1015.8 |
| 20260904171833 | 94 | 190 | 4.0 | 7.0 | 0.00 | 0.00 | 0.00 | 56 | 1016.0 |
| 20260904171329 | 92 | 128 | 0.0 | 0.0 | 0.00 | 0.00 | 0.00 | 59 | 1016.1 |
| 20260904170825 | 93 | 164 | 7.0 | 8.0 | 0.00 | 0.00 | 0.00 | 57 | 1016.2 |
| 20260904170320 | 93 | 131 | 2.0 | 2.0 | 0.00 | 0.00 | 0.00 | 58 | 1016.3 |
| 20260904165815 | 93 | 213 | 3.0 | 3.0 | 0.00 | 0.00 | 0.00 | 57 | 1016.2 |
| 20260904165314 | 92 | 171 | 4.0 | 5.0 | 0.00 | 0.00 | 0.00 | 60 | 1016.3 |
| 20260904164809 | 92 | 192 | 3.0 | 3.0 | 0.00 | 0.00 | 0.00 | 61 | 1016.2 |
| 20260904164303 | 92 | 217 | 4.0 | 6.0 | 0.00 | 0.00 | 0.00 | 60 | 1016.3 |
| 20260904163759 | 91 | 182 | 2.0 | 3.0 | 0.00 | 0.00 | 0.00 | 62 | 1016.2 |
| 20260904163254 | 91 | 185 | 1.0 | 1.0 | 0.00 | 0.00 | 0.00 | 62 | 1016.5 |
| 20260904162754 | 91 | 205 | 2.0 | 3.0 | 0.00 | 0.00 | 0.00 | 63 | 1016.5 |
| 20260904162249 | 91 | 187 | 0.0 | 1.0 | 0.00 | 0.00 | 0.00 | 63 | 1016.6 |
| 20260904161744 | 90 | 159 | 1.0 | 2.0 | 0.00 | 0.00 | 0.00 | 64 | 1016.5 |
| 20260904161244 | 90 | 194 | 1.0 | 2.0 | 0.00 | 0.00 | 0.00 | 66 | 1016.3 |
| 20260904160740 | 89 | 183 | 3.0 | 3.0 | 0.00 | 0.00 | 0.00 | 66 | 1016.4 |
| 20260904160236 | 89 | 198 | 1.0 | 1.0 | 0.00 | 0.00 | 0.00 | 65 | 1016.5 |
| 20260904155735 | 89 | 178 | 5.0 | 6.0 | 0.00 | 0.00 | 0.00 | 67 | 1016.2 |
| 20260904155234 | 88 | 201 | 4.0 | 6.0 | 0.00 | 0.00 | 0.00 | 67 | 1016.5 |
| 20260904154733 | 88 | 184 | 1.0 | 2.0 | 0.00 | 0.00 | 0.00 | 69 | 1016.4 |
| 20260904154228 | 88 | 164 | 4.0 | 6.0 | 0.00 | 0.00 | 0.00 | 69 | 1016.3 |
| 20260904153724 | 88 | 191 | 4.0 | 7.0 | 0.00 | 0.00 | 0.00 | 70 | 1016.3 |
| 20260904153219 | 87 | 200 | 3.0 | 5.0 | 0.00 | 0.00 | 0.00 | 71 | 1016.3 |
| 20260904152715 | 87 | 157 | 6.0 | 8.0 | 0.00 | 0.00 | 0.00 | 71 | 1016.2 |
| 20260904152210 | 87 | 196 | 3.0 | 5.0 | 0.00 | 0.00 | 0.00 | 73 | 1016.0 |
| 20260904151705 | 87 | 193 | 3.0 | 5.0 | 0.00 | 0.00 | 0.00 | 74 | 1016.3 |
| 20260904151204 | 85 | 146 | 2.0 | 2.0 | 0.00 | 0.00 | 0.00 | 76 | 1016.1 |
| 20260904150700 | 86 | 173 | 6.0 | 7.0 | 0.00 | 0.00 | 0.00 | 76 | 1016.1 |
| 20260904150155 | 86 | 196 | 1.0 | 1.0 | 0.00 | 0.00 | 0.00 | 77 | 1016.0 |
| 20260904145653 | 85 | 166 | 2.0 | 3.0 | 0.00 | 0.00 | 0.00 | 79 | 1015.9 |
| 20260904145148 | 85 | 200 | 2.0 | 3.0 | 0.00 | 0.00 | 0.00 | 80 | 1016.1 |
| 20260904144644 | 83 | 197 | 3.0 | 3.0 | 0.00 | 0.00 | 0.00 | 83 | 1016.1 |
| 20260904144140 | 83 | 187 | 5.0 | 9.0 | 0.00 | 0.00 | 0.00 | 83 | 1016.2 |
| 20260904143636 | 83 | 150 | 2.0 | 2.0 | 0.00 | 0.00 | 0.00 | 84 | 1016.3 |
| 20260904143132 | 83 | 206 | 4.0 | 5.0 | 0.00 | 0.00 | 0.00 | 84 | 1016.2 |
| 20260904142628 | 82 | 162 | 1.0 | 2.0 | 0.00 | 0.00 | 0.00 | 85 | 1016.3 |
| 20260904142124 | 82 | 194 | 4.0 | 6.0 | 0.00 | 0.00 | 0.00 | 86 | 1016.3 |
| 20260904141618 | 82 | 169 | 1.0 | 2.0 | 0.00 | 0.00 | 0.00 | 88 | 1016.3 |
| 20260904141114 | 81 | 191 | 3.0 | 3.0 | 0.00 | 0.00 | 0.00 | 88 | 1016.1 |
| 20260904140610 | 81 | 157 | 5.0 | 8.0 | 0.00 | 0.00 | 0.00 | 88 | 1016.3 |
| 20260904140103 | 81 | 180 | 4.0 | 7.0 | 0.00 | 0.00 | 0.00 | 88 | 1016.3 |
| 20260904135603 | 81 | 202 | 2.0 | 2.0 | 0.00 | 0.00 | 0.00 | 89 | 1016.3 |
| 20260904135059 | 81 | 204 | 3.0 | 3.0 | 0.00 | 0.00 | 0.00 | 90 | 1016.2 |
| 20260904134555 | 80 | 192 | 1.0 | 2.0 | 0.00 | 0.00 | 0.00 | 91 | 1016.2 |
| 20260904134048 | 79 | 172 | 3.0 | 5.0 | 0.00 | 0.00 | 0.00 | 92 | 1016.0 |
| 20260904133543 | 79 | 161 | 2.0 | 3.0 | 0.00 | 0.00 | 0.00 | 93 | 1016.0 |
| 20260904133040 | 79 | 182 | 1.0 | 1.0 | 0.00 | 0.00 | 0.00 | 94 | 1015.9 |
| 20260904132539 | 78 | 176 | 0.0 | 1.0 | 0.00 | 0.00 | 0.00 | 94 | 1015.9 |
| 20260904132039 | 78 | 202 | 3.0 | 3.0 | 0.00 | 0.00 | 0.00 | 94 | 1015.9 |
| 20260904131539 | 78 | 195 | 1.0 | 2.0 | 0.00 | 0.00 | 0.00 | 95 | 1015.8 |
| 20260904131035 | 78 | 193 | 1.0 | 2.0 | 0.00 | 0.00 | 0.00 | 95 | 1015.9 |
| 20260904130534 | 78 | 170 | 1.0 | 3.0 | 0.00 | 0.00 | 0.00 | 95 | 1015.8 |
| 20260904130029 | 77 | 75 | 2.0 | 2.0 | 0.00 | 0.00 | 0.00 | 95 | 1015.6 |
| 20260904125526 | 77 | 188 | 1.0 | 1.0 | 0.00 | 0.00 | 0.00 | 95 | 1015.6 |
| 20260904125020 | 77 | 206 | 2.0 | 3.0 | 0.00 | 0.00 | 0.00 | 96 | 1015.6 |
| 20260904124516 | 77 | 206 | 0.0 | 1.0 | 0.00 | 0.00 | 0.00 | 96 | 1015.5 |
| 20260904124012 | 77 | 204 | 1.0 | 1.0 | 0.00 | 0.00 | 0.00 | 96 | 1015.5 |
| 20260904123511 | 77 | 188 | 2.0 | 2.0 | 0.00 | 0.00 | 0.00 | 96 | 1015.5 |
| 20260904123007 | 77 | 138 | 1.0 | 2.0 | 0.00 | 0.00 | 0.00 | 96 | 1015.4 |
| 20260904122501 | 77 | 192 | 1.0 | 2.0 | 0.00 | 0.00 | 0.00 | 96 | 1015.7 |
| 20260904121955 | 77 | 189 | 2.0 | 2.0 | 0.00 | 0.00 | 0.00 | 96 | 1015.6 |
| 20260904121452 | 76 | 213 | 3.0 | 3.0 | 0.00 | 0.00 | 0.00 | 95 | 1015.6 |
| 20260904120948 | 76 | 195 | 1.0 | 1.0 | 0.00 | 0.00 | 0.00 | 95 | 1015.5 |
| 20260904120443 | 76 | 170 | 1.0 | 1.0 | 0.00 | 0.00 | 0.00 | 95 | 1015.1 |
| 20260904115938 | 76 | 144 | 1.0 | 1.0 | 0.00 | 0.00 | 0.00 | 95 | 1015.3 |
| 20260904115434 | 76 | 189 | 2.0 | 2.0 | 0.00 | 0.00 | 0.00 | 95 | 1015.4 |
| 20260904114933 | 76 | 157 | 2.0 | 3.0 | 0.00 | 0.00 | 0.00 | 95 | 1015.2 |
| 20260904114428 | 76 | 186 | 1.0 | 1.0 | 0.00 | 0.00 | 0.00 | 94 | 1015.1 |
| 20260904113924 | 76 | 200 | 1.0 | 2.0 | 0.00 | 0.00 | 0.00 | 94 | 1015.3 |
| 20260904113423 | 76 | 194 | 1.0 | 1.0 | 0.00 | 0.00 | 0.00 | 94 | 1015.2 |
| 20260904112922 | 76 | 194 | 0.0 | 1.0 | 0.00 | 0.00 | 0.00 | 94 | 1015.5 |
| 20260904112418 | 76 | 208 | 1.0 | 1.0 | 0.00 | 0.00 | 0.00 | 94 | 1015.2 |
| 20260904111913 | 76 | 206 | 1.0 | 2.0 | 0.00 | 0.00 | 0.00 | 94 | 1014.9 |
| 20260904111409 | 76 | 201 | 2.0 | 2.0 | 0.00 | 0.00 | 0.00 | 93 | 1015.0 |
| 20260904110905 | 76 | 212 | 2.0 | 3.0 | 0.00 | 0.00 | 0.00 | 93 | 1015.0 |
| 20260904110403 | 76 | 208 | 1.0 | 2.0 | 0.00 | 0.00 | 0.00 | 93 | 1015.0 |
| 20260904105858 | 76 | 210 | 1.0 | 2.0 | 0.00 | 0.00 | 0.00 | 93 | 1015.1 |
| 20260904105353 | 76 | 206 | 1.0 | 1.0 | 0.00 | 0.00 | 0.00 | 92 | 1015.1 |
| 20260904104848 | 76 | 174 | 1.0 | 1.0 | 0.00 | 0.00 | 0.00 | 92 | 1014.9 |
| 20260904104344 | 76 | 148 | 2.0 | 2.0 | 0.00 | 0.00 | 0.00 | 91 | 1014.9 |
| 20260904103841 | 76 | 182 | 3.0 | 3.0 | 0.00 | 0.00 | 0.00 | 91 | 1015.0 |
| 20260904103341 | 76 | 173 | 1.0 | 1.0 | 0.00 | 0.00 | 0.00 | 91 | 1015.0 |
| 20260904102837 | 76 | 181 | 0.0 | 1.0 | 0.00 | 0.00 | 0.00 | 90 | 1014.9 |
| 20260904102332 | 77 | 142 | 1.0 | 1.0 | 0.00 | 0.00 | 0.00 | 90 | 1014.9 |
| 20260904101828 | 77 | 185 | 0.0 | 0.0 | 0.00 | 0.00 | 0.00 | 90 | 1014.8 |
| 20260904101324 | 77 | 177 | 0.0 | 1.0 | 0.00 | 0.00 | 0.00 | 89 | 1014.8 |
| 20260904100819 | 77 | 162 | 2.0 | 2.0 | 0.00 | 0.00 | 0.00 | 89 | 1015.0 |
| 20260904100315 | 77 | 201 | 1.0 | 1.0 | 0.00 | 0.00 | 0.00 | 89 | 1014.9 |
| 20260904095816 | 77 | 156 | 1.0 | 1.0 | 0.00 | 0.00 | 0.00 | 89 | 1014.6 |
| 20260904095310 | 77 | 171 | 1.0 | 2.0 | 0.00 | 0.00 | 0.00 | 89 | 1014.8 |
| 20260904094806 | 77 | 160 | 1.0 | 1.0 | 0.00 | 0.00 | 0.00 | 89 | 1014.7 |
| 20260904094301 | 77 | 164 | 1.0 | 2.0 | 0.00 | 0.00 | 0.00 | 89 | 1014.7 |
| 20260904093757 | 77 | 184 | 0.0 | 0.0 | 0.00 | 0.00 | 0.00 | 89 | 1014.7 |
| 20260904093257 | 77 | 198 | 0.0 | 0.0 | 0.00 | 0.00 | 0.00 | 88 | 1014.8 |
| 20260904092752 | 77 | 193 | 0.0 | 0.0 | 0.00 | 0.00 | 0.00 | 88 | 1014.6 |
| 20260904092249 | 77 | 199 | 0.0 | 0.0 | 0.00 | 0.00 | 0.00 | 88 | 1014.7 |
| 20260904091744 | 77 | 201 | 0.0 | 0.0 | 0.00 | 0.00 | 0.00 | 87 | 1014.6 |
| 20260904091239 | 77 | 200 | 0.0 | 0.0 | 0.00 | 0.00 | 0.00 | 87 | 1014.8 |
| 20260904090735 | 77 | 181 | 1.0 | 1.0 | 0.00 | 0.00 | 0.00 | 87 | 1014.8 |
| 20260904090231 | 77 | 194 | 0.0 | 0.0 | 0.00 | 0.00 | 0.00 | 87 | 1014.6 |
| 20260904085730 | 77 | 198 | 0.0 | 1.0 | 0.00 | 0.00 | 0.00 | 87 | 1014.7 |
| 20260904085225 | 77 | 200 | 0.0 | 0.0 | 0.00 | 0.00 | 0.00 | 87 | 1014.8 |
| 20260904084720 | 77 | 183 | 0.0 | 0.0 | 0.00 | 0.00 | 0.00 | 87 | 1014.7 |
| 20260904084216 | 77 | 191 | 1.0 | 1.0 | 0.00 | 0.00 | 0.00 | 86 | 1014.5 |
| 20260904083713 | 77 | 178 | 3.0 | 3.0 | 0.00 | 0.00 | 0.00 | 86 | 1014.8 |
| 20260904083209 | 77 | 205 | 0.0 | 0.0 | 0.00 | 0.00 | 0.00 | 86 | 1014.6 |
| 20260904082709 | 78 | 211 | 1.0 | 1.0 | 0.00 | 0.00 | 0.00 | 86 | 1014.6 |
| 20260904082204 | 78 | 160 | 1.0 | 2.0 | 0.00 | 0.00 | 0.00 | 86 | 1014.6 |
| 20260904081659 | 78 | 160 | 1.0 | 2.0 | 0.00 | 0.00 | 0.00 | 85 | 1014.6 |
| 20260904081154 | 78 | 178 | 1.0 | 1.0 | 0.00 | 0.00 | 0.00 | 85 | 1014.6 |
| 20260904080650 | 78 | 221 | 0.0 | 1.0 | 0.00 | 0.00 | 0.00 | 85 | 1014.4 |
| 20260904080146 | 78 | 180 | 1.0 | 1.0 | 0.00 | 0.00 | 0.00 | 85 | 1014.6 |
| 20260904075643 | 78 | 192 | 3.0 | 5.0 | 0.00 | 0.00 | 0.00 | 84 | 1014.6 |
| 20260904075137 | 78 | 169 | 2.0 | 2.0 | 0.00 | 0.00 | 0.00 | 84 | 1014.6 |
| 20260904074636 | 78 | 194 | 0.0 | 1.0 | 0.00 | 0.00 | 0.00 | 84 | 1014.5 |
| 20260904074131 | 79 | 199 | 0.0 | 0.0 | 0.00 | 0.00 | 0.00 | 84 | 1014.5 |
| 20260904073626 | 79 | 190 | 1.0 | 2.0 | 0.00 | 0.00 | 0.00 | 84 | 1014.5 |
| 20260904073122 | 79 | 194 | 0.0 | 0.0 | 0.00 | 0.00 | 0.00 | 83 | 1014.5 |
| 20260904072618 | 79 | 201 | 0.0 | 1.0 | 0.00 | 0.00 | 0.00 | 83 | 1014.7 |
| 20260904072112 | 79 | 168 | 1.0 | 1.0 | 0.00 | 0.00 | 0.00 | 82 | 1014.6 |
| 20260904071603 | 79 | 200 | 0.0 | 1.0 | 0.00 | 0.00 | 0.00 | 82 | 1014.6 |
| 20260904071057 | 79 | 166 | 2.0 | 3.0 | 0.00 | 0.00 | 0.00 | 82 | 1014.6 |
| 20260904070556 | 79 | 156 | 3.0 | 5.0 | 0.00 | 0.00 | 0.00 | 82 | 1014.6 |
| 20260904070052 | 79 | 187 | 2.0 | 2.0 | 0.00 | 0.00 | 0.00 | 81 | 1014.7 |
| 20260904065546 | 79 | 190 | 2.0 | 3.0 | 0.00 | 0.00 | 0.00 | 81 | 1014.9 |
| 20260904065042 | 79 | 180 | 2.0 | 3.0 | 0.00 | 0.00 | 0.00 | 81 | 1015.0 |
| 20260904064538 | 80 | 195 | 0.0 | 0.0 | 0.00 | 0.00 | 0.00 | 81 | 1014.9 |
| 20260904064032 | 80 | 196 | 2.0 | 2.0 | 0.00 | 0.00 | 0.00 | 80 | 1015.0 |
| 20260904063530 | 80 | 192 | 0.0 | 0.0 | 0.00 | 0.00 | 0.00 | 80 | 1014.9 |
| 20260904063029 | 80 | 197 | 2.0 | 2.0 | 0.00 | 0.00 | 0.00 | 80 | 1014.6 |
| 20260904062526 | 80 | 186 | 0.0 | 1.0 | 0.00 | 0.00 | 0.00 | 80 | 1014.8 |
| 20260904062021 | 80 | 175 | 3.0 | 3.0 | 0.00 | 0.00 | 0.00 | 80 | 1014.7 |
| 20260904061517 | 80 | 192 | 2.0 | 2.0 | 0.00 | 0.00 | 0.00 | 80 | 1014.8 |
| 20260904061013 | 80 | 196 | 3.0 | 3.0 | 0.00 | 0.00 | 0.00 | 79 | 1014.7 |
| 20260904060509 | 80 | 194 | 3.0 | 5.0 | 0.00 | 0.00 | 0.00 | 79 | 1014.8 |
| 20260904060005 | 80 | 207 | 2.0 | 3.0 | 0.00 | 0.00 | 0.00 | 79 | 1014.7 |
| 20260904055500 | 80 | 190 | 2.0 | 3.0 | 0.00 | 0.00 | 0.00 | 79 | 1014.7 |
| 20260904054955 | 80 | 172 | 3.0 | 3.0 | 0.00 | 0.00 | 0.00 | 79 | 1014.7 |
| 20260904054451 | 80 | 204 | 4.0 | 5.0 | 0.00 | 0.00 | 0.00 | 78 | 1014.6 |
| 20260904053947 | 80 | 183 | 1.0 | 1.0 | 0.00 | 0.00 | 0.00 | 78 | 1014.6 |
| 20260904053446 | 80 | 198 | 1.0 | 1.0 | 0.00 | 0.00 | 0.00 | 77 | 1014.8 |
| 20260904052942 | 80 | 192 | 0.0 | 0.0 | 0.00 | 0.00 | 0.00 | 76 | 1014.6 |